This is the latest recevied weather packets stored in our database for station/object CX5ACA-13. If no packets are shown the sender has not sent any weather packets the latest 10 day(s).
| Time | Temp. | Humidity | Pressure | Rain* | Wind** | Luminosity | Snow |
|---|---|---|---|---|---|---|---|
| 1778072121 | 20° C | 93% | 1013.8 hPa | 0 mm | - | 96 W/m² | - |
| 1778071819 | 20.56° C | 92% | 1013.8 hPa | 0 mm | - | 91 W/m² | - |
| 1778071517 | 20.56° C | 92% | 1013.9 hPa | 0 mm | - | 99 W/m² | - |
| 1778071215 | 21.11° C | 91% | 1014 hPa | 0 mm | - | 105 W/m² | - |
| 1778070912 | 21.67° C | 91% | 1013.9 hPa | 0 mm | - | 70 W/m² | - |
| 1778070610 | 21.67° C | 90% | 1014 hPa | 0 mm | - | 59 W/m² | - |
| 1778070306 | 22.22° C | 89% | 1013.8 hPa | 0 mm | - | 76 W/m² | - |
| 1778070005 | 22.22° C | 88% | 1013.9 hPa | 0 mm | - | 121 W/m² | - |
| 1778069701 | 22.22° C | 88% | 1013.9 hPa | 0 mm | - | 203 W/m² | - |
| 1778069398 | 21.67° C | 89% | 1013.7 hPa | 0 mm | - | 164 W/m² | - |
| 1778069096 | 21.67° C | 90% | 1013.8 hPa | 0 mm | - | 108 W/m² | - |
| 1778068793 | 21.11° C | 91% | 1013.7 hPa | 0 mm | - | 76 W/m² | - |
| 1778068491 | 20.56° C | 93% | 1013.7 hPa | 0 mm | - | 69 W/m² | - |
| 1778068189 | 20° C | 94% | 1013.9 hPa | 0 mm | - | 62 W/m² | - |
| 1778067886 | 20° C | 96% | 1013.8 hPa | 0 mm | - | 60 W/m² | - |
| 1778067585 | 19.44° C | 96% | 1013.7 hPa | 0 mm | - | 36 W/m² | - |
| 1778067282 | 19.44° C | 97% | 1013.4 hPa | 0 mm | - | 29 W/m² | - |
| 1778066978 | 19.44° C | 97% | 1013.7 hPa | 0 mm | - | 27 W/m² | - |
| 1778066676 | 19.44° C | 97% | 1013.6 hPa | 0 mm | - | 25 W/m² | - |
| 1778066373 | 19.44° C | 98% | 1013.7 hPa | 0 mm | - | 25 W/m² | - |
| 1778066071 | 18.89° C | 98% | 1013.7 hPa | 0 mm | - | 26 W/m² | - |
| 1778065768 | 18.89° C | 98% | 1013.7 hPa | 0 mm | - | 25 W/m² | - |
| 1778065466 | 18.89° C | 98% | 1013.8 hPa | 0 mm | - | 21 W/m² | - |
| 1778065162 | 18.89° C | 99% | 1013.8 hPa | 0 mm | - | 19 W/m² | - |
| 1778064858 | 18.89° C | 99% | 1013.9 hPa | 0 mm | - | 15 W/m² | - |
* Rain latest hour (hover to see other rain measurements)
** Current wind speed in m/s (hover to see current wind gust speed)